FW4077 Weather Reports


Display with metric or nautical units.
time (UTC)temp
F
wind
direction
speed
MPH
gust
MPH
rain 1hr
in
rain 24hr
in
rain mn
in
humidity
%
barometer
mb
20260507130537 44 0.0 2.0 0.00 0.89 0.00 99 1008.1
20260507125637 45 0.0 1.0 0.00 0.89 0.00 99 1008.1
20260507124537 44 0.0 0.0 0.00 0.89 0.00 99 1008.2
20260507123517 44 0.0 0.0 0.00 0.89 0.00 99 1008.1
20260507122516 44 0.0 0.0 0.00 0.89 0.00 99 1008.1
20260507121517 43 0.0 0.0 0.00 0.89 0.00 99 1007.9
20260507120517 43 0.0 0.0 0.00 0.89 0.00 99 1007.7
20260507115516 42 0.0 0.0 0.00 0.89 0.00 99 1007.8
20260507114517 42 0.0 0.0 0.00 0.89 0.00 99 1007.9
20260507113517 41 0.0 0.0 0.00 0.89 0.00 99 1007.9
20260507112517 40 0.0 0.0 0.00 0.89 0.00 98 1007.8
20260507111516 40 0.0 0.0 0.00 0.89 0.00 98 1007.9
20260507110516 39 0.0 0.0 0.00 0.89 0.00 98 1007.9
20260507105517 39 0.0 1.0 0.00 0.89 0.00 98 1008.0
20260507104517 39 0.0 0.0 0.00 0.89 0.00 98 1007.8
20260507103517 38 0.0 0.0 0.00 0.89 0.00 98 1007.7
20260507102537 38 0.0 1.0 0.00 0.89 0.00 98 1007.7
20260507101517 38 0.0 0.0 0.00 0.89 0.00 98 1007.6
20260507100516 38 0.0 0.0 0.00 0.89 0.00 98 1007.6
20260507095517 38 0.0 0.0 0.00 0.89 0.00 97 1007.6
20260507094556 38 0.0 0.0 0.00 0.89 0.00 97 1007.7
20260507093516 38 0.0 0.0 0.00 0.89 0.00 97 1007.7
20260507092516 38 0.0 2.0 0.00 0.90 0.00 97 1007.8
20260507091516 39 0.0 0.0 0.00 0.90 0.00 97 1007.7
20260507090516 39 0.0 0.0 0.00 0.90 0.00 97 1007.7
20260507085516 39 0.0 0.0 0.00 0.90 0.00 97 1007.8
20260507084516 39 0.0 0.0 0.00 0.90 0.00 97 1007.9
20260507083516 40 0.0 0.0 0.00 0.90 0.00 97 1008.0
20260507082517 40 0.0 0.0 0.00 0.90 0.00 97 1008.0
20260507081516 40 0.0 0.0 0.00 0.90 0.00 97 1007.9
20260507080516 41 0.0 1.0 0.00 0.90 0.00 97 1007.8
20260507075516 41 0.0 0.0 0.00 0.90 0.00 97 1007.6
20260507074516 41 0.0 0.0 0.00 0.90 0.00 97 1007.5
20260507073516 42 0.0 0.0 0.00 0.90 0.00 97 1007.6
20260507072516 42 0.0 0.0 0.00 0.90 0.00 97 1007.7
20260507071516 42 0.0 0.0 0.00 0.90 0.00 97 1007.6
20260507070516 42 0.0 0.0 0.00 0.90 0.00 98 1007.7
20260507065516 42 0.0 0.0 0.00 0.90 0.00 98 1007.6
20260507064516 42 0.0 0.0 0.00 0.90 0.00 98 1007.7
20260507063536 42 0.0 0.0 0.00 0.90 0.00 98 1007.8
20260507062516 42 0.0 0.0 0.00 0.90 0.00 97 1007.9
20260507061516 43 0.0 1.0 0.00 0.90 0.00 97 1008.0
20260507060515 43 0.0 0.0 0.00 0.90 0.00 97 1007.7
20260507055516 43 0.0 2.0 0.00 0.90 0.00 97 1008.2
20260507054516 43 0.0 0.0 0.00 0.90 0.00 97 1008.0
20260507053516 44 0.0 0.0 0.00 0.90 0.00 97 1008.3
20260507052536 44 0.0 0.0 0.00 0.90 0.00 98 1008.0
20260507051516 44 0.0 0.0 0.00 0.90 0.00 98 1007.8
20260507050516 44 0.0 0.0 0.00 0.92 0.00 98 1008.0
20260507045515 44 0.0 0.0 0.00 0.92 0.00 98 1007.9
20260507044516 44 0.0 0.0 0.00 0.93 0.00 98 1008.0
20260507043516 44 0.0 0.0 0.00 0.95 0.00 98 1007.8
20260507042556 44 0.0 0.0 0.00 0.95 0.00 98 1007.9
20260507041515 44 0.0 0.0 0.00 0.95 0.00 98 1007.7
20260507040516 44 0.0 0.0 0.00 0.95 0.00 97 1007.7
20260507035516 44 0.0 0.0 0.01 0.95 0.95 97 1007.6
20260507034516 45 0.0 0.0 0.01 0.95 0.95 98 1007.4
20260507033536 45 0.0 0.0 0.01 0.95 0.95 97 1008.1
20260507032536 45 0.0 0.0 0.01 0.95 0.95 98 1008.2
20260507031516 45 0.0 0.0 0.01 0.95 0.95 98 1008.1
20260507030516 45 0.0 0.0 0.02 0.95 0.95 97 1008.2
20260507025516 45 0.0 0.0 0.03 0.94 0.94 97 1008.3
20260507024515 45 0.0 0.0 0.03 0.94 0.94 97 1008.2
20260507023516 45 0.0 0.0 0.04 0.94 0.94 97 1008.6
20260507022516 45 0.0 0.0 0.05 0.94 0.94 97 1008.6
20260507021516 45 0.0 0.0 0.05 0.94 0.94 98 1008.6
20260507020516 45 0.0 0.0 0.05 0.93 0.93 98 1008.5
20260507015516 45 0.0 0.0 0.03 0.91 0.91 97 1008.7
20260507014516 45 0.0 0.0 0.04 0.91 0.91 97 1008.4
20260507013517 45 0.0 1.0 0.03 0.90 0.90 97 1008.4
20260507012536 45 0.0 0.0 0.02 0.89 0.89 97 1008.0
20260507011515 45 0.0 0.0 0.03 0.89 0.89 97 1007.6
20260507010516 45 0.0 1.0 0.03 0.88 0.88 97 1008.0
20260507005516 46 0.0 1.0 0.03 0.88 0.88 97 1007.7
20260507004516 46 0.0 0.0 0.03 0.87 0.87 97 1007.5
20260507003516 46 0.0 0.0 0.03 0.87 0.87 97 1007.1
20260507002516 46 0.0 1.0 0.04 0.87 0.87 97 1007.3
20260507001516 46 0.0 1.0 0.03 0.86 0.86 97 1006.9
20260507000516 47 0.0 1.0 0.02 0.85 0.85 97 1006.9
20260506235515 47 0.0 1.0 0.02 0.85 0.85 97 1006.9
20260506234536 47 0.0 2.0 0.01 0.84 0.84 97 1006.7
20260506233515 47 0.0 1.0 0.01 0.84 0.84 97 1006.6
20260506232515 48 0.0 0.0 0.00 0.83 0.83 97 1006.5
20260506231515 48 0.0 0.0 0.00 0.83 0.83 97 1006.5
20260506230516 48 0.0 0.0 0.02 0.83 0.83 97 1006.1
20260506225535 48 0.0 0.0 0.04 0.83 0.83 97 1006.2
20260506224515 48 0.0 1.0 0.05 0.83 0.83 97 1006.1
20260506223516 48 0.0 1.0 0.07 0.83 0.83 97 1005.8
20260506222515 48 0.0 0.0 0.11 0.83 0.83 97 1005.8
20260506221515 48 0.0 1.0 0.15 0.83 0.83 97 1005.7
20260506220535 48 203 1.0 3.0 0.16 0.81 0.81 97 1006.0
20260506215535 48 0.0 1.0 0.19 0.79 0.79 97 1005.9
20260506214515 48 203 1.0 3.0 0.21 0.78 0.78 96 1005.9
20260506213515 48 293 1.0 2.0 0.21 0.76 0.76 96 1005.7
20260506212515 49 0.0 2.0 0.17 0.72 0.72 96 1005.5
20260506211515 49 158 1.0 2.0 0.15 0.69 0.68 96 1005.4
20260506210515 49 0.0 2.0 0.14 0.68 0.65 96 1005.2
20260506205555 50 0.0 2.0 0.11 0.64 0.60 95 1005.0
20260506204515 50 0.0 2.0 0.10 0.61 0.57 96 1005.0
20260506203516 51 0.0 1.0 0.08 0.60 0.55 95 1005.0
20260506202515 51 113 1.0 2.0 0.08 0.62 0.55 95 1004.9
20260506201515 52 180 1.0 4.0 0.06 0.63 0.53 96 1004.9
20260506200515 52 158 1.0 4.0 0.04 0.61 0.51 96 1004.7
20260506195515 53 0.0 1.0 0.03 0.59 0.49 95 1004.4
20260506194517 54 270 1.0 3.0 0.02 0.57 0.47 95 1004.7
20260506193517 55 0.0 0.0 0.04 0.57 0.47 96 1004.7
20260506192517 55 0.0 0.0 0.06 0.57 0.47 96 1004.9
20260506191517 56 0.0 2.0 0.08 0.57 0.47 96 1004.9
20260506190517 58 315 1.0 2.0 0.11 0.57 0.47 98 1005.0
20260506185517 58 0.0 0.0 0.13 0.56 0.46 98 1005.0
20260506184537 58 0.0 0.0 0.16 0.55 0.45 98 1005.1
20260506183517 58 0.0 0.0 0.17 0.53 0.43 98 1005.3
20260506182517 58 0.0 0.0 0.18 0.51 0.41 98 1005.2
20260506181517 58 0.0 1.0 0.17 0.49 0.39 98 1005.3
20260506180517 57 0.0 1.0 0.15 0.46 0.36 98 1005.5
20260506175517 58 0.0 1.0 0.14 0.43 0.33 98 1005.7
20260506174518 58 0.0 1.0 0.11 0.39 0.29 98 1005.7
20260506173517 58 0.0 2.0 0.09 0.36 0.26 98 1005.6
20260506172517 58 0.0 2.0 0.07 0.33 0.23 98 1005.9
20260506171517 58 0.0 1.0 0.07 0.32 0.22 98 1005.9
20260506170518 57 0.0 1.0 0.07 0.31 0.21 98 1005.9
20260506165518 57 0.0 2.0 0.05 0.29 0.19 98 1005.9
20260506164537 57 0.0 2.0 0.05 0.28 0.18 98 1005.8
20260506163516 57 0.0 2.0 0.04 0.27 0.17 98 1006.0
20260506162517 57 0.0 1.0 0.04 0.26 0.16 98 1006.1
20260506161536 56 0.0 0.0 0.04 0.25 0.15 98 1006.2
20260506160516 56 0.0 1.0 0.04 0.24 0.14 98 1006.3
20260506155516 56 0.0 1.0 0.05 0.24 0.14 98 1006.5
20260506154517 56 0.0 0.0 0.04 0.23 0.13 97 1006.8
20260506153516 56 0.0 0.0 0.05 0.23 0.13 97 1006.9
20260506152517 55 0.0 0.0 0.05 0.22 0.12 98 1007.1
20260506151516 55 0.0 0.0 0.04 0.21 0.11 97 1007.3
20260506150516 55 0.0 0.0 0.03 0.20 0.10 97 1007.4
20260506145516 55 0.0 0.0 0.02 0.19 0.09 97 1007.5
20260506144517 55 0.0 0.0 0.02 0.19 0.09 97 1007.4
20260506143516 55 0.0 1.0 0.01 0.18 0.08 97 1007.5
20260506142516 55 0.0 0.0 0.00 0.17 0.07 97 1007.5
20260506141536 55 0.0 0.0 0.01 0.17 0.07 98 1007.5
20260506140516 55 0.0 0.0 0.01 0.17 0.07 98 1007.5
20260506135516 55 0.0 0.0 0.01 0.17 0.07 98 1007.5
20260506134520 55 0.0 0.0 0.01 0.17 0.07 97 1007.5
20260506133516 54 0.0 0.0 0.01 0.17 0.07 97 1007.6
20260506132517 54 0.0 1.0 0.01 0.17 0.07 97 1007.8
20260506131516 54 0.0 0.0 0.00 0.16 0.06 98 1007.7